[[{"header":{"parameterUnit":"m.s-1","parameterCategory":1,"la1":30.2991,"la2":30.254,"lo1":-89.0895,"lo2":-89.0444,"dy":0.0017,"dx":0.0017,"nx":28,"ny":28,"refTime":"2025-07-27T21:00:00:Z","depth":0,"parameterNumber":2,"parameterNumberName":"U-component_of_WINDS"},"data":[0,0,0,0,0,0,0,0,0,0,0,0,0,0,0,0,0,0,0,0,0,0,0,0,0,0,0,0,0,0,0,0,0,0,0,0,0,0,0,0,0,0,0,0,0,0,0,0,0,0,0,0,0,0,0,0,0,0,2.3503,2.3503,0,2.3437,2.3436,2.3436,2.3349,2.3348,2.3346,2.3345,2.3276,2.3276,2.3275,0,0,0,0,0,0,0,0,0,0,0,0,0,2.3554,2.3553,2.3503,2.3502,2.3502,2.3437,2.3436,2.3435,2.3349,2.3348,2.3346,2.3344,2.3277,2.3276,2.3275,0,0,0,0,0,0,0,0,0,0,0,0,0,2.3514,2.3553,2.3503,2.3451,2.3446,2.3437,2.3436,2.3435,2.335,2.3348,2.3345,2.3343,2.3277,2.3276,2.3275,2.3313,0,0,2.3273,2.3273,0,0,0,0,0,0,0,0,2.3517,2.3513,2.3459,2.3455,2.3449,2.3399,2.3429,2.3394,2.335,2.3386,2.3345,2.3342,2.3319,2.3315,2.3307,2.331,2.3307,2.3273,2.3272,2.3272,2.3272,0,0,0,0,0,0,0,2.352,2.3515,2.3477,2.3459,2.3452,2.343,2.3422,2.3422,2.3365,2.3383,2.3376,2.337,2.3316,2.3308,2.3305,2.3306,2.3273,2.3272,2.3272,2.3272,2.3337,2.3339,0,0,0,0,0,0,2.353,2.3518,2.3479,2.3475,2.3478,2.3431,2.3422,2.3417,2.3365,2.3355,2.3372,2.3366,2.331,2.3306,2.3302,2.3343,2.3272,2.3271,2.3271,2.3334,2.3337,2.3339,0,0,0,0,0,0,2.3532,2.3528,2.3482,2.3495,2.3487,2.3433,2.3428,2.3417,2.3409,2.3357,2.3346,2.3374,2.3308,2.3303,2.3311,2.3339,2.3271,2.327,2.3332,2.3335,2.3338,2.3425,0,0,0,0,0,0,2.3534,2.3529,2.3543,2.3496,2.3487,2.3493,2.3429,2.3417,2.3408,2.34,2.3356,2.3347,2.3306,2.3313,2.331,2.3337,2.327,2.3329,2.3333,2.3337,2.342,2.3431,2.3441,0,0,0,0,0,2.3536,2.357,2.3544,2.354,2.3503,2.3495,2.3489,2.3442,2.3411,2.3424,2.3391,2.3348,2.3337,2.3314,2.3311,2.3338,2.3327,2.3332,2.3337,2.3415,2.3429,2.3441,0,0,0,0,0,0,2.3621,2.3563,2.3533,2.3553,2.353,2.348,2.3496,2.3459,2.3443,2.3436,2.3378,2.3369,2.3384,2.3361,2.3338,2.3371,2.3325,2.333,2.3386,2.3399,2.3409,2.3414,2.3269,0,0,0,0,0,2.3643,2.3641,2.3589,2.3612,2.3601,2.3551,2.3545,2.3511,2.3484,2.3473,2.344,2.3415,2.3406,2.3401,2.3389,2.3416,2.3405,2.3432,2.3443,2.3452,2.3457,2.3469,2.3481,2.3356,2.3356,2.3355,0,0,2.3686,2.3654,2.3656,2.3628,2.3606,2.3605,2.3543,2.3544,2.3543,2.3473,2.3479,2.3454,2.3422,2.344,2.3446,2.3422,2.3489,2.3458,2.3466,2.3466,2.3475,2.3487,2.3498,2.3359,2.3358,2.3358,0,0,2.3766,2.3741,2.3757,2.3736,2.3703,2.3669,2.3673,2.3629,2.361,2.3615,2.3563,2.356,2.3545,2.3525,2.3512,2.3584,2.3545,2.3582,2.3638,2.365,2.366,2.3669,2.3694,2.3704,2.3587,2.3587,2.3587,0,2.3824,2.3821,2.377,2.3775,2.3764,2.3701,2.3717,2.3699,2.3664,2.3658,2.3631,2.3611,2.3585,2.3597,2.3615,2.3607,2.3609,2.3587,2.3663,2.3671,2.3678,2.3702,2.3712,2.3592,2.3591,2.3591,2.359,0,2.3895,2.3894,2.391,2.3879,2.3869,2.388,2.383,2.3827,2.3794,2.3763,2.3768,2.3735,2.3716,2.3716,2.3683,2.3723,2.3709,2.3674,2.3626,2.3696,2.3717,2.3726,2.3599,2.3597,2.3595,2.3594,0,0,2.4027,2.3967,2.3974,2.3959,2.3917,2.3915,2.3923,2.3904,2.3903,2.388,2.3885,2.3874,2.3841,2.3827,2.3791,2.3802,2.3861,2.3765,2.3763,2.3784,2.3904,2.3931,2.3943,2.3835,2.3836,2.3837,2.3906,0,2.4099,2.4108,2.4063,2.4084,2.4082,2.4022,2.4029,2.4004,2.3975,2.3969,2.3937,2.393,2.3887,2.3878,2.3886,2.3853,2.3885,2.3847,2.3838,2.3839,2.3849,2.3954,2.3983,2.4049,2.3914,2.3916,2.3917,0,2.4184,2.4167,2.4189,2.4146,2.4144,2.4151,2.413,2.4125,2.4095,2.4074,2.4059,2.4017,2.4021,2.3976,2.398,2.3956,2.3949,2.3932,2.3934,2.3931,2.3882,2.3955,2.4069,2.408,2.3929,2.3928,2.3927,0,2.4279,2.4261,2.4271,2.426,2.4211,2.4217,2.4197,2.4166,2.4158,2.4139,2.4133,2.4116,2.4106,2.4093,2.4048,2.4019,2.4058,2.4009,2.404,2.4041,2.4051,2.4051,2.4167,2.4047,2.4047,2.4047,2.4046,0,2.4364,2.438,2.4313,2.432,2.4336,2.4283,2.43,2.4273,2.4246,2.4246,2.4193,2.4194,2.4134,2.4129,2.4094,2.4103,2.4099,2.4081,2.4072,2.4086,2.4089,2.4081,2.4076,2.4049,2.4049,2.4048,2.4048,0,2.4473,2.4429,2.4436,2.4389,2.4378,2.4392,2.4351,2.4355,2.4323,2.4324,2.4321,2.427,2.4261,2.4215,2.4195,2.4171,2.4192,2.4173,2.4203,2.4196,2.423,2.4228,2.4346,2.4358,2.423,2.4232,2.4233,0,2.453,2.4541,2.4495,2.4492,2.4474,2.4469,2.446,2.4408,2.4402,2.4369,2.4377,2.4363,2.435,2.4338,2.4299,2.4283,2.4264,2.4306,2.4261,2.4275,2.4264,2.4265,2.4265,2.4316,2.4318,2.4319,2.432,0,2.4637,2.4615,2.4605,2.4587,2.4579,2.4562,2.4542,2.4542,2.4485,2.448,2.447,2.4459,2.4439,2.4426,2.4404,2.4382,2.4342,2.4335,2.4341,2.4356,2.4373,2.4364,2.4229,2.4332,2.4331,2.433,2.4329,2.4329,2.4722,2.4729,2.4698,2.4688,2.4668,2.4651,2.4652,2.462,2.4611,2.4591,2.456,2.4555,2.4525,2.449,2.4472,2.4467,2.4444,2.4453,2.4455,2.4458,2.4466,2.4374,2.4462,2.4462,2.4461,2.4461,2.4461,0,2.4827,2.4804,2.4796,2.477,2.4762,2.4725,2.4701,2.4697,2.4693,2.4668,2.4656,2.4645,2.4632,2.4592,2.4575,2.4579,2.456,2.4576,2.4575,2.4571,2.4487,2.4484,2.4592,2.4592,2.4592,2.4592,2.4592,2.4592,2.4881,2.489,2.4864,2.4863,2.484,2.4834,2.4824,2.4807,2.4787,2.4777,2.4767,2.4741,2.471,2.469,2.4677,2.4665,2.4662,2.4685,2.4667,2.459,2.4577,2.4565,2.4561,2.4684,2.4684,2.4751,2.4752,2.4752]},{"header":{"parameterUnit":"m.s-1","parameterCategory":1,"la1":30.2991,"la2":30.254,"lo1":-89.0895,"lo2":-89.0444,"dy":0.0017,"dx":0.0017,"nx":28,"ny":28,"refTime":"2025-07-27T21:00:00:Z","depth":0,"parameterNumber":3,"parameterNumberName":"V-component_of_WINDS"},"data":[0,0,0,0,0,0,0,0,0,0,0,0,0,0,0,0,0,0,0,0,0,0,0,0,0,0,0,0,0,0,0,0,0,0,0,0,0,0,0,0,0,0,0,0,0,0,0,0,0,0,0,0,0,0,0,0,0,0,-2.1356,-2.1356,0,-2.131,-2.1309,-2.1308,-2.1236,-2.1234,-2.1233,-2.1232,-2.1184,-2.1184,-2.1184,0,0,0,0,0,0,0,0,0,0,0,0,0,-2.1382,-2.1382,-2.1356,-2.1356,-2.1355,-2.131,-2.1309,-2.1308,-2.1236,-2.1234,-2.1233,-2.1231,-2.1184,-2.1184,-2.1184,0,0,0,0,0,0,0,0,0,0,0,0,0,-2.1357,-2.1382,-2.1356,-2.1313,-2.1309,-2.131,-2.1309,-2.1308,-2.1236,-2.1234,-2.1232,-2.123,-2.1184,-2.1184,-2.1184,-2.1223,0,0,-2.1184,-2.1184,0,0,0,0,0,0,0,0,-2.1358,-2.1356,-2.132,-2.1316,-2.1311,-2.1276,-2.1301,-2.128,-2.1237,-2.1264,-2.1232,-2.1229,-2.1216,-2.1214,-2.1209,-2.1221,-2.1219,-2.1184,-2.1184,-2.1184,-2.1184,0,0,0,0,0,0,0,-2.136,-2.1358,-2.1338,-2.132,-2.1314,-2.1296,-2.1291,-2.1296,-2.1252,-2.1261,-2.1256,-2.1251,-2.1214,-2.1209,-2.1207,-2.1218,-2.1184,-2.1184,-2.1184,-2.1184,-2.126,-2.1262,0,0,0,0,0,0,-2.1368,-2.136,-2.1339,-2.1336,-2.1331,-2.1298,-2.1291,-2.129,-2.1251,-2.1244,-2.1253,-2.1248,-2.121,-2.1208,-2.1206,-2.1249,-2.1184,-2.1184,-2.1184,-2.1258,-2.126,-2.1263,0,0,0,0,0,0,-2.1369,-2.1367,-2.1341,-2.1346,-2.1342,-2.1299,-2.1298,-2.129,-2.1285,-2.1245,-2.1237,-2.1257,-2.1209,-2.1206,-2.1219,-2.1247,-2.1184,-2.1184,-2.1255,-2.1259,-2.1262,-2.1337,0,0,0,0,0,0,-2.137,-2.1368,-2.1382,-2.1347,-2.1342,-2.1356,-2.13,-2.129,-2.1285,-2.1279,-2.1247,-2.124,-2.1207,-2.122,-2.1219,-2.1245,-2.1184,-2.1253,-2.1257,-2.1261,-2.1332,-2.1342,-2.1351,0,0,0,0,0,-2.1371,-2.1405,-2.1383,-2.1381,-2.1359,-2.1358,-2.1354,-2.1316,-2.1288,-2.1302,-2.1276,-2.1241,-2.1244,-2.1222,-2.1221,-2.1247,-2.1251,-2.1256,-2.126,-2.1328,-2.134,-2.1351,0,0,0,0,0,0,-2.1445,-2.14,-2.1375,-2.1399,-2.1383,-2.1345,-2.1362,-2.1331,-2.1322,-2.1316,-2.1269,-2.1263,-2.1283,-2.1266,-2.1243,-2.1283,-2.1242,-2.1246,-2.1293,-2.1305,-2.1315,-2.1319,-2.1183,0,0,0,0,0,-2.1464,-2.1466,-2.1427,-2.1451,-2.1445,-2.1405,-2.1403,-2.1375,-2.1356,-2.1349,-2.1324,-2.1308,-2.1305,-2.1304,-2.1299,-2.1329,-2.1321,-2.1346,-2.1356,-2.1364,-2.1369,-2.1384,-2.1395,-2.1278,-2.1278,-2.1278,0,0,-2.1503,-2.1479,-2.1483,-2.1466,-2.145,-2.1454,-2.14,-2.1406,-2.1409,-2.135,-2.1362,-2.1343,-2.1321,-2.1344,-2.1352,-2.133,-2.14,-2.137,-2.1377,-2.1377,-2.139,-2.1402,-2.1411,-2.1281,-2.128,-2.128,0,0,-2.1576,-2.1558,-2.1577,-2.1562,-2.1539,-2.1512,-2.1517,-2.1484,-2.147,-2.148,-2.1437,-2.1439,-2.1435,-2.1421,-2.1414,-2.1483,-2.145,-2.1482,-2.1533,-2.1549,-2.1558,-2.1566,-2.1591,-2.1601,-2.1487,-2.1487,-2.1487,0,-2.1628,-2.1632,-2.159,-2.16,-2.1593,-2.154,-2.1559,-2.1547,-2.1524,-2.1521,-2.1496,-2.1491,-2.1472,-2.1491,-2.1508,-2.1503,-2.1508,-2.1486,-2.156,-2.1568,-2.1574,-2.1598,-2.1608,-2.1492,-2.1491,-2.1491,-2.149,0,-2.1697,-2.1701,-2.1718,-2.1697,-2.1693,-2.1707,-2.1668,-2.1669,-2.1641,-2.1617,-2.1629,-2.1605,-2.1595,-2.1597,-2.157,-2.1612,-2.16,-2.1569,-2.1526,-2.1591,-2.1612,-2.1621,-2.1498,-2.1496,-2.1495,-2.1494,0,0,-2.1815,-2.1771,-2.1779,-2.1769,-2.1739,-2.1741,-2.1753,-2.1743,-2.1745,-2.173,-2.1739,-2.1737,-2.1709,-2.17,-2.1671,-2.1685,-2.1742,-2.1652,-2.1651,-2.167,-2.1788,-2.1812,-2.1823,-2.1719,-2.1721,-2.1722,-2.179,0,-2.1884,-2.1901,-2.1864,-2.1891,-2.1895,-2.1844,-2.1855,-2.1838,-2.1816,-2.1815,-2.1791,-2.1791,-2.1752,-2.1747,-2.1758,-2.1733,-2.1765,-2.1727,-2.1728,-2.1729,-2.1736,-2.1834,-2.186,-2.1925,-2.1798,-2.1799,-2.18,0,-2.1965,-2.1955,-2.1983,-2.1952,-2.1952,-2.1962,-2.195,-2.195,-2.193,-2.1913,-2.1905,-2.1871,-2.188,-2.1839,-2.1852,-2.1827,-2.1825,-2.1813,-2.1815,-2.1814,-2.1769,-2.1837,-2.1945,-2.1955,-2.1813,-2.1812,-2.1811,0,-2.205,-2.2044,-2.2059,-2.2052,-2.2017,-2.2025,-2.2011,-2.1989,-2.1985,-2.1975,-2.1972,-2.1963,-2.1958,-2.1952,-2.1916,-2.189,-2.1934,-2.189,-2.1921,-2.1922,-2.1933,-2.1933,-2.2043,-2.1931,-2.193,-2.193,-2.193,0,-2.2131,-2.215,-2.2097,-2.2107,-2.2127,-2.2084,-2.2105,-2.2085,-2.2066,-2.2072,-2.2027,-2.2033,-2.1986,-2.1987,-2.1959,-2.1974,-2.1972,-2.1959,-2.1952,-2.1964,-2.1966,-2.1963,-2.1958,-2.1933,-2.1932,-2.1932,-2.1931,0,-2.223,-2.2195,-2.2209,-2.2174,-2.2166,-2.2182,-2.2152,-2.216,-2.2135,-2.2143,-2.2142,-2.2103,-2.2102,-2.2065,-2.2056,-2.2038,-2.2065,-2.2049,-2.2072,-2.2067,-2.2101,-2.2099,-2.2214,-2.2227,-2.2105,-2.2106,-2.2107,0,-2.2284,-2.2297,-2.2264,-2.2264,-2.2252,-2.2253,-2.225,-2.2208,-2.2206,-2.2184,-2.2195,-2.219,-2.2184,-2.2185,-2.2156,-2.2149,-2.2132,-2.2173,-2.2131,-2.2143,-2.2134,-2.2134,-2.2136,-2.2182,-2.2184,-2.2185,-2.2186,0,-2.2384,-2.2366,-2.2362,-2.2353,-2.235,-2.2341,-2.2328,-2.2331,-2.2286,-2.2286,-2.2284,-2.2279,-2.227,-2.2266,-2.2254,-2.2239,-2.2206,-2.2199,-2.2206,-2.222,-2.2233,-2.2227,-2.2098,-2.2197,-2.2196,-2.2195,-2.2195,-2.2194,-2.2462,-2.2472,-2.2451,-2.2448,-2.2435,-2.2425,-2.2431,-2.2406,-2.2404,-2.2394,-2.2369,-2.2372,-2.2352,-2.2332,-2.232,-2.2321,-2.2301,-2.2311,-2.2313,-2.2317,-2.2324,-2.2232,-2.2319,-2.2318,-2.2318,-2.2318,-2.2317,0,-2.2561,-2.2545,-2.2543,-2.2528,-2.2526,-2.2494,-2.2479,-2.248,-2.2483,-2.2467,-2.2462,-2.246,-2.2456,-2.2427,-2.242,-2.2426,-2.2411,-2.2426,-2.2426,-2.2423,-2.2342,-2.2337,-2.2439,-2.2439,-2.2439,-2.2439,-2.2439,-2.2439,-2.2612,-2.2628,-2.2608,-2.2616,-2.2599,-2.2602,-2.2596,-2.2587,-2.2574,-2.2574,-2.2571,-2.2551,-2.253,-2.2521,-2.2516,-2.2508,-2.2508,-2.2528,-2.2515,-2.244,-2.2429,-2.2417,-2.2413,-2.2528,-2.2529,-2.2596,-2.2596,-2.2597]}]]